DW1253 Weather Reports


time (UTC)temp
C
wind
direction
speed
KPH
gust
KPH
rain 1hr
cm
rain 24hr
cm
rain mn
cm
humidity
%
barometer
mb
20260906100851 15 71 0.0 1.6 0.00 0.00 0.00 92 1016.6
20260906100347 15 71 0.0 1.6 0.00 0.00 0.00 92 1016.5
20260906095835 15 71 0.0 1.6 0.00 0.00 0.00 92 1016.5
20260906095351 15 71 0.0 0.0 0.00 0.00 0.00 92 1016.5
20260906094846 15 71 0.0 0.0 0.00 0.00 0.00 92 1016.3
20260906094403 15 71 0.0 0.0 0.00 0.00 0.00 92 1016.3
20260906093858 15 71 0.0 1.6 0.00 0.00 0.00 92 1016.3
20260906093333 15 71 0.0 1.6 0.00 0.00 0.00 91 1016.2
20260906092850 15 71 0.0 0.0 0.00 0.00 0.00 91 1016.1
20260906092342 15 71 0.0 0.0 0.00 0.00 0.00 91 1016.0
20260906091840 15 71 0.0 1.6 0.00 0.00 0.00 91 1016.0
20260906091336 15 71 0.0 1.6 0.00 0.00 0.00 91 1016.0
20260906090851 15 71 0.0 0.0 0.00 0.00 0.00 91 1016.0
20260906090347 15 71 0.0 0.0 0.00 0.00 0.00 91 1016.0
20260906085836 15 71 0.0 0.0 0.00 0.00 0.00 90 1015.9
20260906085352 15 71 0.0 0.0 0.00 0.00 0.00 90 1015.8
20260906084847 15 71 0.0 0.0 0.00 0.00 0.00 90 1015.8
20260906084347 15 71 0.0 0.0 0.00 0.00 0.00 91 1015.8
20260906083844 15 71 0.0 3.2 0.00 0.00 0.00 90 1015.6
20260906083341 15 71 0.0 3.2 0.00 0.00 0.00 90 1015.6
20260906082857 15 71 0.0 1.6 0.00 0.00 0.00 90 1015.6
20260906082353 15 71 0.0 3.2 0.00 0.00 0.00 90 1015.5
20260906081847 15 71 0.0 3.2 0.00 0.00 0.00 90 1015.5
20260906081345 15 71 0.0 1.6 0.00 0.00 0.00 90 1015.6
20260906080901 15 71 0.0 3.2 0.00 0.00 0.00 89 1015.4
20260906080336 15 71 0.0 3.2 0.00 0.00 0.00 90 1015.4
20260906075844 15 71 1.6 3.2 0.00 0.00 0.00 89 1015.4
20260906075341 15 71 0.0 4.8 0.00 0.00 0.00 88 1015.3
20260906074838 15 71 0.0 4.8 0.00 0.00 0.00 89 1015.3
20260906074354 15 71 0.0 3.2 0.00 0.00 0.00 90 1015.5
20260906073849 15 71 0.0 3.2 0.00 0.00 0.00 91 1015.4
20260906073345 15 71 1.6 3.2 0.00 0.00 0.00 90 1015.5
20260906072842 15 71 0.0 3.2 0.00 0.00 0.00 90 1015.3
20260906072358 15 71 0.0 3.2 0.00 0.00 0.00 90 1015.2
20260906071833 15 71 0.0 3.2 0.00 0.00 0.00 90 1015.2
20260906071350 15 71 0.0 3.2 0.00 0.00 0.00 90 1015.2
20260906070846 15 71 1.6 3.2 0.00 0.00 0.00 90 1015.2
20260906070342 15 71 0.0 3.2 0.00 0.00 0.00 90 1015.2
20260906065834 15 71 0.0 3.2 0.00 0.00 0.00 90 1015.3
20260906065350 15 71 0.0 1.6 0.00 0.00 0.00 89 1015.4
20260906064846 15 71 0.0 1.6 0.00 0.00 0.00 88 1015.3
20260906064342 15 71 0.0 3.2 0.00 0.00 0.00 88 1015.3
20260906063837 16 71 1.6 4.8 0.00 0.00 0.00 88 1015.3
20260906063334 16 71 0.0 4.8 0.00 0.00 0.00 88 1015.4
20260906062849 16 71 1.6 6.4 0.00 0.00 0.00 87 1015.4
20260906062407 16 71 3.2 6.4 0.00 0.00 0.00 88 1015.3
20260906061840 16 61 1.6 3.2 0.00 0.00 0.00 88 1015.4
20260906061336 16 61 1.6 3.2 0.00 0.00 0.00 87 1015.3
20260906060911 16 61 0.0 4.8 0.00 0.00 0.00 87 1015.3
20260906060346 16 61 1.6 4.8 0.00 0.00 0.00 87 1015.3
20260906055834 16 76 1.6 3.2 0.00 0.00 0.00 87 1015.4
20260906055409 16 76 0.0 4.8 0.00 0.00 0.00 86 1015.4
20260906054844 16 76 1.6 4.8 0.00 0.00 0.00 86 1015.5
20260906054400 16 64 0.0 3.2 0.00 0.00 0.00 86 1015.5
20260906053836 16 64 1.6 4.8 0.00 0.00 0.00 86 1015.5
20260906053351 16 64 1.6 4.8 0.00 0.00 0.00 86 1015.5
20260906052848 16 64 1.6 4.8 0.00 0.00 0.00 86 1015.4
20260906052344 16 49 1.6 4.8 0.00 0.00 0.00 86 1015.5
20260906051840 16 49 0.0 3.2 0.00 0.00 0.00 86 1015.5
20260906051336 16 49 0.0 4.8 0.00 0.00 0.00 86 1015.4
20260906050837 16 49 0.0 4.8 0.00 0.00 0.00 86 1015.4
20260906050353 16 46 0.0 4.8 0.00 0.00 0.00 86 1015.4
20260906045841 16 46 1.6 4.8 0.00 0.00 0.00 86 1015.5
20260906045336 16 42 1.6 3.2 0.00 0.00 0.00 86 1015.4
20260906044833 16 42 1.6 4.8 0.00 0.00 0.00 86 1015.5
20260906044411 16 42 1.6 4.8 0.00 0.00 0.00 85 1015.5
20260906043905 16 42 0.0 4.8 0.00 0.00 0.00 85 1015.4
20260906043341 16 39 1.6 6.4 0.00 0.00 0.00 85 1015.5
20260906042837 16 39 3.2 6.4 0.00 0.00 0.00 85 1015.4
20260906042334 16 360 1.6 4.8 0.00 0.00 0.00 85 1015.4
20260906041910 16 96 0.0 3.2 0.00 0.00 0.00 86 1015.4
20260906041405 16 96 0.0 4.8 0.00 0.00 0.00 87 1015.4
20260906040901 16 96 1.6 4.8 0.00 0.00 0.00 87 1015.4
20260906040335 16 96 0.0 1.6 0.00 0.00 0.00 88 1015.4
20260906035844 16 96 0.0 1.6 0.00 0.00 0.00 89 1015.2
20260906035341 16 96 0.0 3.2 0.00 0.00 0.00 89 1015.1
20260906034837 15 96 0.0 3.2 0.00 0.00 0.00 89 1015.2
20260906034333 15 96 0.0 3.2 0.00 0.00 0.00 90 1015.3
20260906033850 15 96 0.0 0.0 0.00 0.00 0.00 90 1015.2
20260906033346 15 96 0.0 1.6 0.00 0.00 0.00 89 1015.3
20260906032842 15 96 0.0 1.6 0.00 0.00 0.00 89 1015.2
20260906032358 15 96 0.0 1.6 0.00 0.00 0.00 89 1015.2
20260906031833 15 96 0.0 0.0 0.00 0.00 0.00 88 1015.2
20260906031348 15 96 0.0 0.0 0.00 0.00 0.00 88 1015.1
20260906030845 15 96 0.0 1.6 0.00 0.00 0.00 87 1015.0
20260906030340 16 96 0.0 3.2 0.00 0.00 0.00 86 1015.0
20260906025846 16 96 0.0 4.8 0.00 0.00 0.00 86 1014.9
20260906025347 16 96 1.6 4.8 0.00 0.00 0.00 85 1014.9
20260906024843 16 107 1.6 4.8 0.00 0.00 0.00 84 1015.0
20260906024340 16 48 1.6 4.8 0.00 0.00 0.00 84 1015.1
20260906023836 16 46 1.6 3.2 0.00 0.00 0.00 84 1015.1
20260906023351 16 46 1.6 4.8 0.00 0.00 0.00 84 1015.1
20260906022847 16 46 1.6 3.2 0.00 0.00 0.00 83 1015.2
20260906022343 16 46 0.0 3.2 0.00 0.00 0.00 83 1015.1
20260906021840 16 46 0.0 3.2 0.00 0.00 0.00 83 1015.0
20260906021336 16 46 0.0 3.2 0.00 0.00 0.00 82 1015.0
20260906020852 17 46 0.0 3.2 0.00 0.00 0.00 81 1015.0
20260906020348 17 46 0.0 1.6 0.00 0.00 0.00 81 1014.9
20260906015835 17 46 0.0 3.2 0.00 0.00 0.00 81 1014.9
20260906015333 17 46 1.6 3.2 0.00 0.00 0.00 81 1014.8
20260906014848 17 46 0.0 3.2 0.00 0.00 0.00 81 1014.9
20260906014345 17 46 0.0 3.2 0.00 0.00 0.00 80 1014.9
20260906013841 17 49 0.0 4.8 0.00 0.00 0.00 79 1015.0
20260906013400 17 49 1.6 4.8 0.00 0.00 0.00 79 1014.9
20260906012855 17 38 0.0 4.8 0.00 0.00 0.00 79 1014.8
20260906012336 17 37 1.6 9.7 0.00 0.00 0.00 79 1014.9
20260906011851 17 37 3.2 9.7 0.00 0.00 0.00 79 1014.8
20260906011348 17 99 3.2 9.7 0.00 0.00 0.00 79 1014.9
20260906010904 17 360 3.2 9.7 0.00 0.00 0.00 79 1014.8
20260906010340 17 18 3.2 8.0 0.00 0.00 0.00 79 1014.7
20260906005848 17 38 1.6 8.0 0.00 0.00 0.00 81 1014.7
20260906005345 17 32 0.0 1.6 0.00 0.00 0.00 81 1014.6
20260906004840 17 32 0.0 4.8 0.00 0.00 0.00 80 1014.6
20260906004357 17 32 1.6 4.8 0.00 0.00 0.00 80 1014.5
20260906003832 17 32 1.6 4.8 0.00 0.00 0.00 80 1014.6
20260906003349 17 31 3.2 4.8 0.00 0.00 0.00 81 1014.6
20260906002846 17 360 1.6 4.8 0.00 0.00 0.00 81 1014.6
20260906002342 17 17 1.6 6.4 0.00 0.00 0.00 81 1014.5
20260906001838 17 39 1.6 6.4 0.00 0.00 0.00 81 1014.4
20260906001334 17 5 1.6 6.4 0.00 0.00 0.00 81 1014.4
20260906000851 17 337 1.6 4.8 0.00 0.00 0.00 81 1014.4
20260906000348 17 343 1.6 4.8 0.00 0.00 0.00 80 1014.5
20260905235835 17 350 1.6 4.8 0.00 0.00 0.00 80 1014.4
20260905235351 17 351 0.0 6.4 0.00 0.00 0.00 80 1014.4
20260905234908 17 360 3.2 6.4 0.00 0.00 0.00 79 1014.4
20260905234343 17 338 3.2 6.4 0.00 0.00 0.00 79 1014.3
20260905233841 18 336 1.6 4.8 0.00 0.00 0.00 78 1014.3
20260905233341 18 333 1.6 4.8 0.00 0.00 0.00 78 1014.3
20260905232837 18 339 1.6 4.8 0.00 0.00 0.00 77 1014.3
20260905232414 18 295 3.2 14.5 0.00 0.00 0.00 76 1014.4
20260905231848 18 333 3.2 14.5 0.00 0.00 0.00 76 1014.5
20260905231344 18 355 1.6 8.0 0.00 0.00 0.00 76 1014.5
20260905230840 18 342 4.8 6.4 0.00 0.00 0.00 77 1014.5
20260905230336 18 17 3.2 6.4 0.00 0.00 0.00 76 1014.7
20260905225844 18 326 1.6 4.8 0.00 0.00 0.00 76 1014.5
20260905225402 18 318 0.0 3.2 0.00 0.00 0.00 75 1014.4
20260905224838 18 313 1.6 4.8 0.00 0.00 0.00 76 1014.5
20260905224335 18 290 1.6 4.8 0.00 0.00 0.00 75 1014.4
20260905223850 19 312 3.2 8.0 0.00 0.00 0.00 75 1014.5
20260905223347 19 5 1.6 11.3 0.00 0.00 0.00 74 1014.7
20260905222844 20 347 4.8 12.9 0.00 0.00 0.00 73 1014.6
20260905222342 20 355 4.8 12.9 0.00 0.00 0.00 73 1014.6
20260905221858 20 36 4.8 12.9 0.00 0.00 0.00 72 1014.5
20260905221335 20 57 3.2 6.4 0.00 0.00 0.00 76 1014.4
20260905220833 19 335 0.0 4.8 0.00 0.00 0.00 76 1014.4
20260905220330 19 335 1.6 3.2 0.00 0.00 0.00 76 1014.4
20260905215839 18 335 0.0 4.8 0.00 0.00 0.00 77 1014.4
20260905215340 19 335 1.6 4.8 0.00 0.00 0.00 75 1014.3
20260905214857 19 348 1.6 9.7 0.00 0.00 0.00 75 1014.2
20260905214332 20 348 3.2 9.7 0.00 0.00 0.00 73 1014.1
20260905213850 20 299 4.8 14.5 0.00 0.00 0.00 71 1014.1
20260905213346 20 300 4.8 14.5 0.00 0.00 0.00 70 1014.1
20260905212843 21 9 4.8 12.9 0.00 0.00 0.00 69 1014.1
20260905212359 21 66 4.8 9.7 0.00 0.00 0.00 68 1014.0
20260905211835 20 281 3.2 9.7 0.00 0.00 0.00 72 1013.9
20260905211352 20 288 4.8 9.7 0.00 0.00 0.00 71 1013.9
20260905210848 20 343 3.2 9.7 0.00 0.00 0.00 70 1013.9
20260905210341 21 321 3.2 9.7 0.00 0.00 0.00 68 1013.8
20260905205850 21 332 3.2 11.3 0.00 0.00 0.00 69 1013.8
20260905205345 21 348 3.2 11.3 0.00 0.00 0.00 69 1013.9
20260905204842 21 25 4.8 11.3 0.00 0.00 0.00 65 1013.8
20260905204339 21 17 4.8 12.9 0.00 0.00 0.00 69 1013.8
20260905203854 21 344 6.4 11.3 0.00 0.00 0.00 67 1013.9
20260905203349 21 285 3.2 11.3 0.00 0.00 0.00 65 1013.9
20260905202846 22 293 3.2 9.7 0.00 0.00 0.00 67 1013.8
20260905202343 22 338 6.4 9.7 0.00 0.00 0.00 65 1013.8
20260905201840 22 97 3.2 8.0 0.00 0.00 0.00 67 1013.8
20260905201340 21 148 3.2 8.0 0.00 0.00 0.00 68 1013.8
20260905200856 21 210 3.2 9.7 0.00 0.00 0.00 70 1013.9
20260905200331 21 13 4.8 14.5 0.00 0.00 0.00 69 1013.8
20260905195840 21 17 6.4 14.5 0.00 0.00 0.00 69 1013.9
20260905195357 21 63 3.2 9.7 0.00 0.00 0.00 69 1013.9
20260905194852 21 195 4.8 9.7 0.00 0.00 0.00 67 1014.0
20260905194408 21 197 3.2 6.4 0.00 0.00 0.00 71 1014.1
20260905193844 21 9 3.2 9.7 0.00 0.00 0.00 68 1014.1
20260905193340 21 57 3.2 12.9 0.00 0.00 0.00 68 1014.0
20260905192837 22 296 6.4 12.9 0.00 0.00 0.00 68 1014.1
20260905192334 22 311 4.8 17.7 0.00 0.00 0.00 67 1014.1
20260905191850 22 301 3.2 17.7 0.00 0.00 0.00 67 1014.1
20260905191406 21 333 6.4 16.1 0.00 0.00 0.00 68 1014.1
20260905190900 22 48 3.2 12.9 0.00 0.00 0.00 66 1014.1
20260905190355 22 262 6.4 14.5 0.00 0.00 0.00 69 1014.1
20260905185843 21 51 6.4 14.5 0.00 0.00 0.00 69 1014.2
20260905185339 21 248 4.8 8.0 0.00 0.00 0.00 68 1014.3
20260905184834 21 322 3.2 12.9 0.00 0.00 0.00 72 1014.2
20260905184350 21 63 6.4 12.9 0.00 0.00 0.00 72 1014.2
20260905183848 21 69 3.2 6.4 0.00 0.00 0.00 71 1014.3
20260905183343 21 5 1.6 8.0 0.00 0.00 0.00 65 1014.2
20260905182900 21 57 1.6 6.4 0.00 0.00 0.00 67 1014.3
20260905182335 21 351 1.6 6.4 0.00 0.00 0.00 73 1014.3
20260905181852 21 342 3.2 6.4 0.00 0.00 0.00 69 1014.2
20260905181347 21 17 3.2 9.7 0.00 0.00 0.00 68 1014.2
20260905180841 22 51 6.4 14.5 0.00 0.00 0.00 67 1014.2
20260905180335 21 15 6.4 14.5 0.00 0.00 0.00 68 1014.2
20260905175843 21 54 1.6 9.7 0.00 0.00 0.00 67 1014.2
20260905175344 21 317 4.8 9.7 0.00 0.00 0.00 67 1014.2
20260905174841 21 232 4.8 9.7 0.00 0.00 0.00 68 1014.2
20260905174338 21 24 3.2 6.4 0.00 0.00 0.00 70 1014.3
20260905173855 21 281 3.2 6.4 0.00 0.00 0.00 72 1014.2
20260905173412 21 232 3.2 12.9 0.00 0.00 0.00 73 1014.2
20260905172847 21 292 6.4 12.9 0.00 0.00 0.00 69 1014.3
20260905172344 20 28 3.2 9.7 0.00 0.00 0.00 74 1014.5
20260905171839 20 51 1.6 8.0 0.00 0.00 0.00 73 1014.4
20260905171357 20 294 3.2 9.7 0.00 0.00 0.00 72 1014.3
20260905170832 20 52 4.8 9.7 0.00 0.00 0.00 72 1014.3
20260905170329 20 9 4.8 8.0 0.00 0.00 0.00 72 1014.4
20260905165858 20 355 4.8 9.7 0.00 0.00 0.00 73 1014.4
20260905165335 20 50 4.8 9.7 0.00 0.00 0.00 74 1014.4
20260905164912 20 38 3.2 9.7 0.00 0.00 0.00 75 1014.3
20260905164408 20 45 3.2 9.7 0.00 0.00 0.00 72 1014.5
20260905163844 20 46 4.8 12.9 0.00 0.00 0.00 72 1014.5
20260905163343 20 344 6.4 14.5 0.00 0.00 0.00 72 1014.3
20260905162839 20 360 1.6 14.5 0.00 0.00 0.00 75 1014.4
20260905162342 20 30 6.4 14.5 0.00 0.00 0.00 74 1014.4
20260905161859 20 355 6.4 17.7 0.00 0.00 0.00 72 1014.4
20260905161334 20 53 4.8 17.7 0.00 0.00 0.00 71 1014.3
20260905160832 21 74 8.0 17.7 0.00 0.00 0.00 69 1014.4
20260905160349 21 67 9.7 17.7 0.00 0.00 0.00 72 1014.4
20260905155838 21 105 4.8 14.5 0.00 0.00 0.00 75 1014.4
20260905155339 20 96 6.4 12.9 0.00 0.00 0.00 73 1014.6
20260905154834 20 284 6.4 12.9 0.00 0.00 0.00 73 1014.6
20260905154350 21 271 1.6 12.9 0.00 0.00 0.00 74 1014.4
20260905153847 20 71 6.4 16.1 0.00 0.00 0.00 75 1014.5
20260905153343 20 84 8.0 20.9 0.00 0.00 0.00 73 1014.6
20260905152840 21 53 9.7 20.9 0.00 0.00 0.00 73 1014.5
20260905152338 21 349 4.8 11.3 0.00 0.00 0.00 77 1014.5
20260905151833 20 80 6.4 19.3 0.00 0.00 0.00 72 1014.6
20260905151351 20 336 8.0 24.1 0.00 0.00 0.00 75 1014.5
20260905150847 20 315 4.8 24.1 0.00 0.00 0.00 74 1014.5
20260905150403 21 111 6.4 17.7 0.00 0.00 0.00 74 1014.6
20260905145850 21 96 9.7 24.1 0.00 0.00 0.00 77 1014.6
20260905145407 20 70 6.4 24.1 0.00 0.00 0.00 75 1014.6
20260905144841 20 51 11.3 20.9 0.00 0.00 0.00 74 1014.5
20260905144337 20 88 6.4 19.3 0.00 0.00 0.00 74 1014.5
20260905143835 20 95 12.9 19.3 0.00 0.00 0.00 75 1014.4
20260905143351 20 107 6.4 16.1 0.00 0.00 0.00 74 1014.3
20260905142848 20 32 9.7 16.1 0.00 0.00 0.00 74 1014.4
20260905142344 20 74 6.4 16.1 0.00 0.00 0.00 77 1014.3
20260905141859 20 31 6.4 16.1 0.00 0.00 0.00 76 1014.5
20260905141340 20 22 8.0 14.5 0.00 0.00 0.00 78 1014.5
20260905140837 20 80 4.8 14.5 0.00 0.00 0.00 76 1014.5
20260905140333 20 28 4.8 12.9 0.00 0.00 0.00 80 1014.4
20260905135841 20 73 6.4 14.5 0.00 0.00 0.00 79 1014.5
20260905135338 20 44 4.8 16.1 0.00 0.00 0.00 80 1014.5
20260905134854 19 130 6.4 16.1 0.00 0.00 0.00 81 1014.5
20260905134349 19 73 6.4 14.5 0.00 0.00 0.00 81 1014.6
20260905133846 19 103 8.0 14.5 0.00 0.00 0.00 83 1014.6
20260905133341 19 355 4.8 11.3 0.00 0.00 0.00 85 1014.6
20260905132838 19 113 4.8 9.7 0.00 0.00 0.00 85 1014.6
20260905132335 18 47 3.2 8.0 0.00 0.00 0.00 86 1014.5
20260905131851 18 82 4.8 9.7 0.00 0.00 0.00 88 1014.5
20260905131348 18 141 3.2 9.7 0.00 0.00 0.00 86 1014.5
20260905130842 18 42 4.8 16.1 0.00 0.00 0.00 87 1014.4
20260905130338 18 31 6.4 16.1 0.00 0.00 0.00 87 1014.5
20260905125846 18 46 4.8 14.5 0.00 0.00 0.00 86 1014.4
20260905125343 18 20 6.4 12.9 0.00 0.00 0.00 87 1014.3
20260905124839 18 32 1.6 9.7 0.00 0.00 0.00 88 1014.4
20260905124356 18 61 1.6 12.9 0.00 0.00 0.00 88 1014.4
20260905123836 17 24 8.0 12.9 0.00 0.00 0.00 88 1014.5
20260905123352 17 28 6.4 11.3 0.00 0.00 0.00 88 1014.5
20260905122848 17 60 4.8 9.7 0.00 0.00 0.00 88 1014.5
20260905122344 17 76 4.8 9.7 0.00 0.00 0.00 88 1014.5
20260905121841 17 63 4.8 8.0 0.00 0.00 0.00 88 1014.5
20260905121336 17 42 4.8 9.7 0.00 0.00 0.00 89 1014.5
20260905120834 17 44 3.2 9.7 0.00 0.00 0.00 91 1014.5
20260905120329 17 57 1.6 6.4 0.00 0.00 0.00 92 1014.5
20260905115857 17 41 1.6 4.8 0.00 0.00 0.00 94 1014.6
20260905115333 17 44 0.0 4.8 0.00 0.00 0.00 94 1014.5
20260905114848 17 29 3.2 4.8 0.00 0.00 0.00 95 1014.5
20260905114345 17 29 1.6 3.2 0.00 0.00 0.00 95 1014.5
20260905113840 16 29 1.6 3.2 0.00 0.00 0.00 95 1014.5
20260905113357 16 29 1.6 4.8 0.00 0.00 0.00 94 1014.5
20260905112833 16 29 1.6 3.2 0.00 0.00 0.00 94 1014.5
20260905112348 16 29 0.0 3.2 0.00 0.00 0.00 94 1014.4
20260905111845 16 29 0.0 1.6 0.00 0.00 0.00 94 1014.2
20260905111342 16 29 0.0 3.2 0.00 0.00 0.00 94 1014.2
20260905110840 16 29 1.6 3.2 0.00 0.00 0.00 94 1014.1
20260905110356 16 29 0.0 3.2 0.00 0.00 0.00 94 1013.9
20260905105844 16 29 1.6 3.2 0.00 0.00 0.00 94 1013.9
20260905105400 16 29 0.0 4.8 0.00 0.00 0.00 94 1013.8
20260905104835 16 29 0.0 4.8 0.00 0.00 0.00 94 1013.5
20260905104334 16 33 1.6 4.8 0.00 0.00 0.00 94 1013.5
20260905103849 16 34 1.6 4.8 0.00 0.00 0.00 94 1013.4
20260905103346 16 338 1.6 6.4 0.00 0.00 0.00 93 1013.5
20260905102842 16 355 3.2 6.4 0.00 0.00 0.00 93 1013.4
20260905102338 16 334 0.0 6.4 0.00 0.00 0.00 93 1013.5
20260905101836 16 328 1.6 6.4 0.00 0.00 0.00 93 1013.4
20260905101351 16 22 1.6 3.2 0.00 0.00 0.00 93 1013.5